National Oceanic Atmosphere Administration National Weather Service Headquarters National Weather Service Headquarters
NOAA logo WFO Anchorage Scalable transition graphic NWS logo
Transition from title bar to navgation bar   Aviation Weather 20 AKDT 
blankspace Home   |   Mobile   |   Social Media   |   Mesonet   |   Surface Map   |   Radar   |   Submit Storm Reports =04 GMT 

LocalForecast by City, St or Zip Code

spacer

Forecasts/Products
  Public
  Forecast Discussion
    - With Glossary
  Aviation
  Marine
  Hydrology(RFC)
  Rivers & Lakes AHPS
  Ice Desk
  TV Weather
  Fire Weather
  Avalanche
  Travel 511
  Graphical
  xml logo RSS Feeds
  Marine FTPMail

spacer

Data
  Mesonet
  Model Graphics
  Local Model
  Observations
  Marine Obs
  Satellite/Radar
  Vent Factor
  Soaring Index
  Weather Links

spacer

Climate
  PAFC Climate
  Interactive Climate
  PAFC Records
  Local
  National
  More

spacer

Outreach
  About Us
  Community Outreach
  Kids' Page
  Tour/Speaker Request
  Weather Classroom
  Social Media

spacer

Reports
  COOP Observers
  Local Storm Reports
  Spotter Page
  Submit a Storm Report

spacer

Miscellaneous
  Archived Alaska Weather Stories
  Student Career Opportunities
  Research Papers

spacer

Print Friendly/
Low Bandwidth

  Public Forecasts
  Marine Forecasts

spacer

Contact Us
  mailto pafcweb

spacer

Facebook Follow the National Weather Service in Alaska on Twitter
USA.gov is the U.S. government's official web portal to all federal, state and local government web resources and services.


 ICAO ID:   AAWU Graphics

Internet access to TAFs and METAR observations is for planning purposes only. We can not guarantee the timeliness of internet products. Before flying please get a formal pilot briefing (1-800-992-7433) and ALWAYS file a Flight Plan!Pilot briefings are provided to licensed aircraft pilots, ONLY! Others may not use the above number to obtain weather information.

Check out the Key to TAFs and METARs for help with decoding the information.

A 12 hour summary of TAFs can be found here.

PAFA TAF
PAFA 012340Z 0200/0306  20010KT 5SM RA BR BKN025 OVC040
     FM020300 22012KT 3SM -RA BR BKN015 OVC025 WS020/22040KT
     FM020900 24015G25KT 4SM -RA BR BKN015 OVC025 WS020/22040KT
     FM021800 26018G28KT P6SM -SHRA SCT015 BKN035 BKN060
     FM030000 26012G22KT P6SM SCT030 BKN090=


METAR PAFA 020353Z VRB04KT 3SM RA BR FEW011 BKN025 OVC035 08/06 A2963
     RMK AO2 SLP039 P0013 T00780061=
METAR PAFA 020353Z VRB04KT 3SM RA BR FEW011 BKN025 OVC035 08/06
     A2963=
METAR PAFA 020253Z VRB04KT 4SM -RA BR BKN025 OVC035 08/06 A2965 RMK AO2
     SLP046 P0013 60036 T00780056 56018=
METAR PAFA 020253Z VRB04KT 4SM -RA BR BKN025 OVC035 08/06 A2965=
METAR PAFA 020153Z 21005KT 3SM RA BR BKN025 OVC035 08/06 A2966 RMK AO2
     SLP052 P0014 T00780056=
METAR PAFA 020153Z 21005KT 3SM RA BR BKN025 OVC035 08/06 A2966=
METAR PAFA 020053Z 19009G16KT 4SM RA BR BKN025 OVC035 08/05 A2968 RMK
     AO2 SLP056 P0009 T00780050=
METAR PAFA 020053Z 19009G16KT 4SM RA BR BKN025 OVC035 08/05 A2968=


National Weather Service
Anchorage Forecast Office
6930 Sand Lake Road
Anchorage, Ak 99502
(907) 266-5105 M-F/7-5pm
About Us
Career Opportunities
Glossary
Disclaimer
Privacy Policy
Credits
Alaska Weather Information Line:
1-800-472-0391